Погода в Мобиле

США     30°41′39″N   88°02′34″W
темп.,
°C
ветер,
м/с
пор.,
м/с
влажн.,
%
обл.,
%
осадки,
мм/ч
давл.,
гПа
погр.,
м
15 мая, сб
сб1501:00+16св12730 0.0 102248
04:00+15св22790 0.0 102258
07:00+15всв26720 0.0 1024156
10:00+23вюв34440 0.0 10241128
13:00+27юв23348 0.0 10231917
16:00+26ю544178 0.0 10211541
19:00+22ю3551100 0.0 1021347
22:00+19вюв116394 0.0 102228
16 мая, вс
вс1601:00+17в2469100 0.0 1021101
04:00+15всв246897 0.0 102199
07:00+16в2667100 0.0 1022158
10:00+25ююв465650 0.0 10231468
13:00+27ююв554551 0.0 10221813
16:00+26ююв56455 0.0 10201423
19:00+23ююв4758100 0.0 1020530
22:00+19юв2573100 0.0 1021234
17 мая, пн
пн1701:00+18вюв2480100 0.0 101996
04:00+17вюв248247 0.0 1019103
07:00+18вюв2779100 0.0 1020203
10:00+26юв5758100 0.0 10201531
13:00+28ююв55476 0.0 10201979
16:00+27ююв55515 0.0 10181672
19:00+24ююв4771100 0.0 1019715
22:00+21юв37835 0.0 1019357
18 мая, вт
вт1801:00+19юв118927 0.0 101932
04:00+18вюв259050 0.0 1018145
07:00+19в398281 0.0 1019313
10:00+27юв69585 0.0 10201545
13:00+29ююв68485 0.0 10201880
16:00+28ююв67443 0.0 10181677
19:00+24ююв48610 0.0 1018617
22:00+20вюв26845 0.0 1019239
19 мая, ср
ср1901:00+20вюв310845 0.0 1018305
04:00+20вюв313815 0.0 1018606
07:00+21вюв411793 0.0 1020807
10:00+26вюв696370 0.1 10211387
13:00+28юв685285 0.4 10201714
16:00+28юв69500 0.1 10181721
19:00+25юв48650 0.1 1019748
22:00+21в28742 0.0 1020285